Flag for U.S.A. Weather past 2 weeks in Houston, Texas, U.S.A.

Now
76 °F

Passing clouds.


Feels Like: 76 °F
Forecast: 76 / 93 °F
Wind: No wind

Location: Houston Hobby Airport

Current Time: Jul 25, 2014 at 4:47:25 AM

Latest Report: Jul 25, 2014 at 3:53 AM


Visibility: 10 mi

Pressure: 30.01 "Hg

Humidity: 91%

Dew point: 73 °F

Location of HoustonLocation

Historic Weather in Houston — Graph

°F

Houston temperature yesterday

Maximum temperature yesterday: 91 °F (at 2:53 PM)
Minimum temperature yesterday: 75 °F (at 4:53 AM)
Average temperature yesterday: 82 °F

Past Weeks' High & Low Weather Summary

 TemperatureHumidityPressure
High95 °F (Jul 21, 3:53 PM)94% (Jul 18, 4:53 AM)30.18 "Hg (Jul 18, 4:53 AM)
Low74 °F (Jul 19, 3:53 AM)44% (Jul 11, 1:53 PM)29.84 "Hg (Jul 18, 4:53 AM)
Average83 °F74%30.00 "Hg
* Reported Jul 10 3:53 AM — Jul 25 3:53 AM, Houston, Weather by CustomWeather, © 2014

Note: Actual official high and low records may vary slightly from our data, if they occured in-between our weather recording intervals... More about our weather records

Advertising

Houston weather history for previous 24 hours

 ConditionsComfort  
Time TempWeatherWind HumidityBarometerVisibility
3:53 AM
Jul 25
76 °FPassing clouds.No wind91%30.01 "Hg10 mi
2:53 AM76 °FClear.No wind91%30.01 "Hg10 mi
1:53 AM77 °FClear.No wind88%30.01 "Hg10 mi
12:53 AM78 °FClear.No wind84%30.01 "Hg10 mi
11:53 PM
Jul 24
79 °FPassing clouds.No wind82%30.00 "Hg10 mi
10:53 PM79 °FPassing clouds.5 mph82%29.99 "Hg10 mi
9:53 PM81 °FPassing clouds.6 mph72%29.98 "Hg10 mi
8:53 PM82 °FScattered clouds.6 mph77%29.96 "Hg10 mi
7:53 PM85 °FScattered clouds.6 mph68%29.95 "Hg10 mi
6:53 PM88 °FScattered clouds.6 mph59%29.93 "Hg10 mi
5:53 PM88 °FScattered clouds.6 mph61%29.94 "Hg10 mi
4:53 PM87 °FScattered clouds.No wind61%29.95 "Hg10 mi
3:53 PM79 °FThunderstorms. Broken clouds.15 mph77%29.99 "Hg10 mi
2:53 PM91 °FScattered clouds.No wind52%29.98 "Hg10 mi
1:53 PM90 °FScattered clouds.5 mph56%30.01 "Hg10 mi
12:53 PM88 °FScattered clouds.7 mph61%30.01 "Hg10 mi
11:53 AM86 °FPartly sunny.6 mph65%30.02 "Hg10 mi
10:53 AM86 °FPartly sunny.3 mph67%30.03 "Hg10 mi
9:53 AM85 °FScattered clouds.3 mph68%30.03 "Hg10 mi
8:53 AM82 °FScattered clouds.3 mph74%30.02 "Hg10 mi
7:53 AM79 °FScattered clouds.5 mph79%30.02 "Hg10 mi
6:53 AM76 °FPassing clouds.3 mph88%30.01 "Hg10 mi
5:53 AM76 °FClear.3 mph88%29.98 "Hg10 mi
4:53 AM75 °FPassing clouds.No wind90%29.98 "Hg10 mi
Weather by CustomWeather, © 2014

See weather overviewHow to use our weather pages